Skip Page Navigation
NASA JPL Caltech
NASA Logo - Jet Propulsion Laboratory + View the NASA Portal
+ Center for Near-Earth Object Studies
JPL Home Earth Solar System Stars & Galaxies Technology
JPL Solar System Dynamics
BODIES ORBITS EPHEMERIDES TOOLS PHYSICAL DATA DISCOVERY FAQ SITE MAP
JPL Small-Body Database Browser
Search: [ help ]  
300760 (2007 VP235)
Classification: Main-belt Asteroid          SPK-ID: 2300760
Ephemeris | Orbit Diagram | Orbital Elements | Mission Design | Physical Parameters | Discovery Circumstances | Close-Approach Data ]

[ show orbit diagram ]
Orbital Elements at Epoch 2459000.5 (2020-May-31.0) TDB
Reference: JPL 9 (heliocentric ecliptic J2000)
 Element Value Uncertainty (1-sigma)   Units 
e .1227589810366025 5.7064e-08  
a 2.635188536131314 2.8142e-08 au
q 2.311695476596498 1.6452e-07 au
i 3.213654536602364 5.8978e-06 deg
node 226.6688598697714 0.00014102 deg
peri 193.9130662400092 0.00014839 deg
M 338.2118955431402 5.0268e-05 deg
tp 2459095.065541463680
(2020-Sep-02.56554146)
0.00021928 TDB
period 1562.485391711368
4.28
2.5029e-05
6.853e-08
d
yr
n .2304021540999479 3.6908e-09 deg/d
Q 2.958681595666131 3.1597e-08 au
  Orbit Determination Parameters
   # obs. used (total)      180  
   data-arc span      9043 days (24.76 yr)  
   first obs. used      1994-11-30  
   last obs. used      2019-09-03  
   planetary ephem.      DE431  
   SB-pert. ephem.      SB431-N16  
   condition code      0  
   norm. resid. RMS      .57232  
   source      ORB  
   producer      Otto Matic  
   solution date      2019-Sep-24 05:49:48  

Additional Information
 Earth MOID = 1.32446 au 
 Jupiter MOID = 2.34314 au 
 T_jup = 3.385 
[ show covariance matrix ]

Ephemeris | Orbit Diagram | Orbital Elements | Mission Design | Physical Parameters | Discovery Circumstances | Close-Approach Data ]

Physical Parameter Table
Parameter Symbol Value Units Sigma Reference Notes
absolute magnitude H 16.8   n/a MPO494602  

300760 (2007 VP235)          Discovered 2007-Nov-09 by Spacewatch at Kitt Peak
Reference: 20111012/Numbers.arcLast Updated: 2011-10-13

[ show close-approach data ]
Ephemeris | Orbit Diagram | Orbital Elements | Mission Design | Physical Parameters | Discovery Circumstances | Close-Approach Data ]
ABOUT SSD CREDITS/AWARDS PRIVACY/COPYRIGHT GLOSSARY LINKS
FirstGov 2020-Oct-28 12:45 UT
(server date/time)  
NASA Home Page
Site Manager:   Ryan S. Park
Webmaster  Alan B. Chamberlin